Regional Weather Roundup
Issued by NWS

Home | Current Version | Previous Version | Text Only | Print | Product List | Glossary On
Versions: 1 2 3 4 5 6 7 8 9 10 11 12 13 14 15 16 17 18 19 20 21 22 23 24 25 26 27 28 29 30 31 32 33 34 35 36 37 38 39 40 41 42 43 44 45 46 47 48 49 50
000
ASUS43 KDMX 202206
RWRIA

WEATHER ROUNDUP FOR IOWA
NATIONAL WEATHER SERVICE DES MOINES IA
400 PM CST FRI JAN 20 2017

NOTE: "FAIR" INDICATES FEW OR NO CLOUDS BELOW 12,000 FEET WITH NO
SIGNIFICANT WEATHER AND/OR OBSTRUCTIONS TO VISIBILITY.

* - THESE STATIONS ARE NOT NWS STATIONS...THUS NOT UNDER NWS
QUALITY CONTROL.  THEY ALSO DO NOT REPORT WEATHER SUCH
AS PRECIPITATION OR FOG.

IAZ001>003-012>014-020>022-031>034-043>046-202300-
   NORTHWEST IOWA

CITY           SKY/WX    TMP DP  RH WIND       PRES   REMARKS
CARROLL *      FOG       39  39 100 SE8       29.48S VSB<1/4 WCI  34
CHEROKEE *     CLOUDY    39  39 100 SE6       29.47S WCI  35
DENISON *      CLOUDY    39  39 100 SE9G15    29.45S FOG     WCI  33
LE MARS *      CLOUDY    41  41 100 SE9       29.46S FOG
ORANGE CITY *  FOG       39  39 100 SE5       29.45S VSB 1
SHELDON *      MIX PCPN  39  39 100 SE13      29.44S VSB 1/4 WCI  32
SIOUX CITY     CLOUDY    43  42  97 SE8       29.45F FOG
SPENCER        FOG       38  38 100 SE6       29.48S VSB 1/2 WCI  33
STORM LAKE *   FOG       37  37 100 SE8       29.47F VSB<1/4 WCI  31
$$

IAZ055>058-069>071-079>083-090>094-202300-
   SOUTHWEST IOWA

CITY           SKY/WX    TMP DP  RH WIND       PRES   REMARKS
ATLANTIC *     CLOUDY    41  41 100 E8        29.46F
AUDUBON *      CLOUDY    39  37  93 E3        29.49S
CLARINDA *     CLOUDY    45  45 100 E8        29.48S FOG
COUNCIL BLFS * CLOUDY    41  41 100 E9        29.45F FOG
CRESTON *      CLOUDY    41  41 100 E9        29.49R
HARLAN  *      CLOUDY    41  41 100 SE6       29.50F
LAMONI         CLOUDY    43  42  97 E6        29.48R
RED OAK *      CLOUDY    43  43 100 MISG      29.47R
SHENANDOAH *   CLOUDY    45  43  93 E7G14     29.46F
$$

IAZ047>049-059>061-072>074-084-202300-
   CENTRAL IOWA

CITY           SKY/WX    TMP DP  RH WIND       PRES   REMARKS
AMES           FOG       40  40 100 E5        29.51F VSB 1/2
ANKENY *       CLOUDY    41  39  93 SE5       29.52S
BOONE *        FOG       39  39 100 SE8       29.50S VSB<1/4 WCI  34
CHARITON *     CLOUDY    43  41  93 E8G14     29.50R FOG
DES MOINES     CLOUDY    42  40  92 E7        29.51F FOG
GRINNELL*      FOG       39  38  99 E5        29.54S VSB 1/4
KNOXVILLE *    FOG       41  41 100 NE7       29.49F VSB<1/4
MARSHALLTOWN   FOG       39  39 100 SE8       29.52S VSB 1/2 WCI  33
NEWTON *       FOG       39  39 100 E6        29.51F VSB 3/4 WCI  35
PELLA *        CLOUDY    40  40  99 E6        29.53F FOG
PERRY *        FOG       40  40  97 SE7       29.51R VSB 1/2
$$

IAZ004>006-015-016-023>025-035-036-202300-
   NORTH CENTRAL IOWA

CITY           SKY/WX    TMP DP  RH WIND       PRES   REMARKS
ALGONA *       FOG       37  37 100 SE8       29.51R VSB 3/4 WCI  31
CLARION *      FOG       37  37 100 E6        29.51F VSB 3/4 WCI  33
ESTHERVILLE    CLOUDY    35  35 100 SE10      29.49R FOG     WCI  27
FORT DODGE *   CLOUDY    37  36  93 CALM      29.50F
MASON CITY     FOG       34  34 100 SE6       29.54S VSB 1/4 WCI  29
FOREST CITY *  FOG       34  34 100 SE6       29.52S VSB 1/4 WCI  29
WEBSTER CITY * FOG       37  37 100 SE8       29.49S VSB<1/4 WCI  31
IOWA FALLS *   FOG       38  37  97 SE6       29.53F VSB<1/4 WCI  33
$$

IAZ007>011-017>019-026>030-037>042-050>054-066-202300-
   NORTHEAST IOWA

CITY           SKY/WX    TMP DP  RH WIND       PRES   REMARKS
CEDAR RAPIDS   CLOUDY    40  39  97 SE6       29.55F FOG
CHARLES CITY * FOG       36  36 100 E5        29.56R VSB<1/4 WCI  32
CLINTON *      FOG       39  39 100 E6        29.60S VSB 3/4 WCI  35
DECORAH *      FOG       36  36 100 SE6       29.57R VSB 1/4 WCI  31
DUBUQUE        FOG       37  37 100 SE5       29.59R VSB<1/4 WCI  33
MONTICELLO *   CLOUDY    39  39 100 E6        29.58S FOG     WCI  35
OELWEIN *      FOG       36  36 100 E7        29.56F VSB<1/4 WCI  30
WATERLOO       CLOUDY    39  37  92 E5        29.55F FOG
$$

IAZ064-065-067-068-078-202300-
   EAST CENTRAL IOWA

CITY           SKY/WX    TMP DP  RH WIND       PRES   REMARKS
DAVENPORT      CLOUDY    44  41  89 SE6       29.59S
IOWA CITY      CLOUDY    43  41  93 SE5       29.57F FOG
MUSCATINE *    CLOUDY    45  41  87 SE5       29.58F
QUAD CITIES    CLOUDY    46  42  86 E5        29.58F
$$

IAZ062-063-075>077-085>089-095>099-202300-
   SOUTHEAST IOWA

CITY           SKY/WX    TMP DP  RH WIND       PRES   REMARKS
BURLINGTON     FOG       44  44 100 E5        29.55F VSB 1/4
FAIRFIELD *    CLOUDY    43  43 100 SE9       29.53F FOG
FORT MADISON * FOG       45  45 100 E5        29.56S VSB<1/4
KEOKUK *       FOG       46 N/A N/A E7        29.54S VSB 1/4
OSKALOOSA *    FOG       41  41  99 SE8       29.53F VSB 1/2
OTTUMWA        FOG       43  41  93 SE8       29.52F VSB 1/2
WASHINGTON *   CLOUDY    45  43  93 SE8       29.56F FOG
$$

ABBREVIATIONS USED IN REMARKS
   TC - TEMPERATURES IN CELSIUS
  WCI - WIND CHILL INDEX
   HX - HEAT INDEX
  VSB - VISIBILITY
$$




USA.gov is the U.S. government's official web portal to all federal, state and local government web resources and services.